643  
ASUS41 KLWX 271611  
RWRLWX  
 
REGIONAL WEATHER ROUNDUP  
NATIONAL WEATHER SERVICE BALTIMORE MD/WASHINGTON DC  
1200 PM EDT THU APR 27 2017  
 
NOTE: "FAIR" INDICATES FEW OR NO CLOUDS BELOW 12,000 FEET  
WITH NO SIGNIFICANT WEATHER AND/OR S TO VISIBILITY
.  
TC=TEMPERATURE CELSIUS  
 
* =NON NWS SITE. STATION DOES NOT REPORT PRECIPITATION (E.G. RAIN,  
SNOW, ETC.), THUNDER, OR FOG.
 
 
DCZ001-MDZ009-015-VAZ040>042-051-053>054-271700-  
WASHINGTON METRO  
 
CITY SKY/WX TMP DP RH WIND PRES REMARKS
 
WASHINGTON NAT CLOUDY 75 66 73 S7 29.86F  
DULLES CLOUDY 70 62 76 S7 29.85F  
ANDREWS AFB CLOUDY 77 64 64 SW9 29.85F  
FT BELVOIR CLOUDY 75 64 68 S6 29.85F  
QUANTICO CLOUDY 72 65 78 S5 29.85  
COLLEGE PARK* CLOUDY 73 64 72 CALM 29.85S  
LEESBURG* CLOUDY 68 64 88 SW5 29.87S  
MANASSAS* N/A 72 65 78 CALM 29.85F  
 

 
 
MDZ006>007-011-014-271700-  
BALTIMORE METRO  
 
CITY SKY/WX TMP DP RH WIND PRES REMARKS
 
BWI AIRPORT CLOUDY 72 64 76 E6 29.85F  
MD SCIENCE CTR N/A 70 60 70 MISG 29.87F  
MARTIN STATE PTSUNNY 70 66 88 SE6 29.89S  
ANNAPOLIS SUNNY 66 63 90 SE10 29.86F FOG  
FORT MEADE* CLOUDY 72 63 73 SE6 29.88F  
 

 
 
MDZ012-015-019>023-271700-  
MARYLAND EASTERN SHORE  
 
CITY SKY/WX TMP DP RH WIND PRES REMARKS
 
OCEAN CITY MOSUNNY 65 59 81 S7 29.90S  
SALISBURY PTSUNNY 79 67 66 S10 29.88S  
BAY BRIDGE AP* SUNNY 66 63 88 W6 29.87F HAZE  
CAMBRIDGE* SUNNY 77 64 65 S7G14 29.87F  
EASTON* MOSUNNY 79 64 61 SW6 29.90F  
 

 
 
MDZ017>025-271700-  
SOUTHERN MARYLAND  
 
CITY SKY/WX TMP DP RH WIND PRES REMARKS
 
PATUXENT RIVER PTSUNNY 80 68 66 SW12 29.86F  
ST INIGOES SUNNY 79 65 62 S9 29.86F  
LEONARDTOWN* SUNNY 77 63 61 SW12G18 29.88S  
 

 
 
MDZ003>005-271700-  
NORTH CENTRAL MARYLAND  
 
CITY SKY/WX TMP DP RH WIND PRES REMARKS
 
FREDERICK* CLOUDY 66 66 100 CALM 29.89S FOG  
HAGERSTOWN APT CLOUDY 69 61 75 S7 29.83S  
WESTMINSTER* CLOUDY 72 63 73 S6 29.86F  
 

 
 
MDZ501>502-271700-  
WESTERN MARYLAND  
 
CITY SKY/WX TMP DP RH WIND PRES REMARKS
 
OAKLAND* N/A 72 55 56 SE13 29.80F  
CUMBERLAND* CLOUDY 70 61 73 CALM 29.82F  
 

 
 
VAZ025>031-271700-  
SHENANDOAH VALLEY  
 
CITY SKY/WX TMP DP RH WIND PRES REMARKS
 
WINCHESTER* MOSUNNY 72 63 73 SE7 29.81F  
FRONT ROYAL* MOSUNNY 72 64 78 E7 29.79F  
LURAY* MOSUNNY 79 61 53 SW13 29.79F  
NEW MARKET* MOSUNNY 77 57 49 SW14G23 29.78F  
STAUNTON* MOSUNNY 74 57 54 SW13 29.84S  
WAYNESBORO* CLOUDY 75 57 53 S7 29.85S  
 

 
 
WVZ021-048>050-054>055-271700-  
EASTERN WEST VIRGINIA PANHANDLE  
 
CITY SKY/WX TMP DP RH WIND PRES REMARKS
 
MARTINSBURG CLOUDY 68 61 78 NE7 29.82F  
PETERSBURG* CLOUDY 73 64 73 SE3 29.76F  
 

 
 
VAZ036>039-050-271700-  
CENTRAL FOOTHILLS  
 
CITY SKY/WX TMP DP RH WIND PRES REMARKS
 
CHARLOTTESVILL MOSUNNY 78 64 61 S12G18 29.83F  
CULPEPER* CLOUDY 75 66 74 S6 29.84F  
ORANGE* CLOUDY 75 63 64 SW8 29.84F  
GORDONSVILLE* CLOUDY 76 64 65 SW8G17 29.83F  
WARRENTON* CLOUDY 77 63 61 S5 29.84F  
 

 
 
VAZ055>057-271700-  
NORTH AND CENTRAL PIEDMONT  
 
CITY SKY/WX TMP DP RH WIND PRES REMARKS
 
FREDERICKSBRG* CLOUDY 79 65 62 S6 29.84F  
STAFFORD* CLOUDY 76 64 67 S7 29.88F  
 

 
 
NCZ024-NYZ072-PAZ021-071-VAZ022-071-271700-  
OTHER REGIONAL OBSERVATIONS  
 
CITY SKY/WX TMP DP RH WIND PRES REMARKS
 
NEW YORK CITY CLOUDY 67 58 72 VRB5 29.94S  
PHILADELPHIA PTSUNNY 74 61 63 CALM 29.88F  
PITTSBURGH CLOUDY 77 56 48 S12G20 29.69S  
ROANOKE CLOUDY 74 58 57 SW3 29.85F  
RICHMOND CLOUDY 79 64 60 S15 29.87F  
RALEIGH PTSUNNY 78 61 55 SW14G22 29.90F  
 

 
 
ANZ530>537-271700-  
MARINE OBSERVATIONS  
 
STATION/POSITION TIME TEMP WIND PRES
 
AIR SEA DIR/SP/G  
(UTC) (F) (DEG/KT/KT) (MB)  
THOMAS PT LIGHT 1600 63 58 190/ 2/ 3 N/A  
BALT KEY BRIDGE 1542 64 90/ 7/ 8 1011.3F  
COVE POINT 1542 61 160/ 13/ 14 1012.1F  
LEWISETTA 1542 76 63 230/ 9/ 13 1011.2F  
SOLOMONS ISLAND 1542 66 60 90/ 5/ 6 N/A  
PINEY POINT 1548 230/ 8/ 8 N/A  
 

 
 
 
 
CLICK HERE TO GO TO PREVIOUS BULLETINS.

The Nexlab VA Page
The Nexlab MD Page
The Nexlab WV Page Main Text Page